[[{"header":{"parameterUnit":"m.s-1","parameterCategory":1,"la1":30.2992,"la2":30.254,"lo1":-89.0895,"lo2":-89.0443,"dy":0.0025,"dx":0.0025,"nx":19,"ny":19,"refTime":"2026-04-08T21:00:00:Z","depth":0,"parameterNumber":2,"parameterNumberName":"U-component_of_WINDS"},"data":[0,0,0,-7.0013,-7.0016,-7.0147,-7.0148,-7.0359,-7.0361,0,0,0,0,0,0,0,0,0,0,0,-6.9999,-7.0002,-7.0013,-7.0017,-7.0147,-7.0148,-7.0358,-7.0361,0,0,0,0,0,0,0,0,0,0,0,-6.9998,-7.0001,-7.0004,-7.0017,-7.0147,-7.0148,-7.0358,-7.0244,0,0,0,0,0,0,0,0,0,0,-7.0109,-7.0121,-7.0,-7.0004,-7.0018,-7.0147,-7.0148,-7.0237,-7.0251,-7.0317,0,-7.0383,0,-7.0375,-7.0378,-7.0378,0,0,0,-6.9998,-7.011,-7.0122,-7.0004,-7.002,-7.0147,-7.0083,-7.0244,-7.026,-7.0335,-7.0385,-7.0392,-7.0379,-7.0379,-7.038,-7.0826,-7.0829,0,0,-6.9991,-7.0037,-7.0112,-7.0133,-7.0115,-7.0079,-7.0087,-7.0253,-7.031,-7.0386,-7.0396,-7.0382,-7.0381,-7.0383,-7.0823,-7.0827,0,0,0,-6.9983,-7.0033,-7.004,-7.0126,-7.0146,-7.0083,-7.0093,-7.0303,-7.0301,-7.0398,-7.0385,-7.0382,-7.0385,-7.082,-7.0825,-7.1016,0,0,0,-6.9977,-7.0027,-7.0038,-7.0067,-7.0144,-7.0226,-7.014,-7.029,-7.0307,-7.0384,-7.0382,-7.0388,-7.0817,-7.0822,-7.1004,-7.11,0,0,0,-6.9982,-7.0028,-7.0055,-7.0069,-7.0127,-7.0222,-7.023,-7.0293,-7.0301,-7.0379,-7.0388,-7.0814,-7.0821,-7.0993,-7.1082,-7.1232,0,0,0,-7.0001,-7.0223,-7.0059,-7.0302,-7.0126,-7.0339,-7.0228,-7.0384,-7.0474,-7.0384,-7.0817,-7.0824,-7.0989,-7.107,-7.1221,-7.1369,-7.1434,0,0,-7.0307,-7.0262,-7.0401,-7.0258,-7.0512,-7.0315,-7.0598,-7.0636,-7.0602,-7.0754,-7.0764,-7.1008,-7.108,-7.123,-7.1781,-7.1833,0,0,0,-7.0514,-7.0615,-7.0672,-7.076,-7.0794,-7.0833,-7.0823,-7.0838,-7.0964,-7.0689,-7.11,-7.1142,-7.1228,-7.1297,-7.1341,-7.1413,-7.0857,-7.0856,-7.0856,-7.1014,-7.0958,-7.1185,-7.1146,-7.1232,-7.1221,-7.1286,-7.1304,-7.1221,-7.132,-7.1366,-7.1707,-7.1789,-7.1822,-7.1898,-7.1437,-7.1438,-7.1438,-7.1439,-7.1459,-7.1595,-7.148,-7.166,-7.16,-7.1751,-7.1749,-7.1686,-7.1819,-7.1667,-7.174,-7.1582,-7.1881,-7.1944,-7.1453,-7.145,-7.1449,-7.1447,-7.1446,-7.1783,-7.1838,-7.1851,-7.1973,-7.2074,-7.2025,-7.2158,-7.2098,-7.2042,-7.2114,-7.2157,-7.2154,-7.2145,-7.2138,-7.214,-7.2141,-7.2142,-7.2143,-7.2143,-7.2114,-7.2123,-7.2242,-7.2299,-7.2348,-7.2405,-7.2396,-7.2443,-7.248,-7.2426,-7.2426,-7.2336,-7.192,-7.1818,-7.2162,-7.2158,-7.2156,-7.2154,-7.2153,-7.2591,-7.2473,-7.2658,-7.2708,-7.2769,-7.2875,-7.2795,-7.2897,-7.2926,-7.2995,-7.2889,-7.259,-7.254,-7.2504,-7.242,-7.2898,-7.2898,-7.2898,-7.2898,-7.2866,-7.2833,-7.3009,-7.3093,-7.3167,-7.3114,-7.3327,-7.3323,-7.3301,-7.3317,-7.3238,-7.312,-7.3086,-7.3056,-7.3008,-7.2928,-7.3526,-7.3526,-7.3527,-7.3157,-7.3129,-7.3321,-7.3297,-7.3341,-7.3381,-7.358,-7.3682,-7.3631,-7.3551,-7.3328,-7.3302,-7.311,-7.305,-7.2968,-7.2895,-7.2747,0,0]},{"header":{"parameterUnit":"m.s-1","parameterCategory":1,"la1":30.2992,"la2":30.254,"lo1":-89.0895,"lo2":-89.0443,"dy":0.0025,"dx":0.0025,"nx":19,"ny":19,"refTime":"2026-04-08T21:00:00:Z","depth":0,"parameterNumber":3,"parameterNumberName":"V-component_of_WINDS"},"data":[0,0,0,-1.596,-1.5961,-1.6006,-1.6006,-1.6066,-1.6067,0,0,0,0,0,0,0,0,0,0,0,-1.5948,-1.5949,-1.5959,-1.5961,-1.6006,-1.6006,-1.6066,-1.6067,0,0,0,0,0,0,0,0,0,0,0,-1.5948,-1.5949,-1.5949,-1.5961,-1.6006,-1.6006,-1.6066,-1.6031,0,0,0,0,0,0,0,0,0,0,-1.5986,-1.5978,-1.5949,-1.5949,-1.5961,-1.6006,-1.6006,-1.6029,-1.6033,-1.6047,0,-1.606,0,-1.6064,-1.6071,-1.6071,0,0,0,-1.5959,-1.5975,-1.5985,-1.5949,-1.5962,-1.6006,-1.5985,-1.6031,-1.6036,-1.6052,-1.6061,-1.6063,-1.6065,-1.6071,-1.6072,-1.6157,-1.6158,0,0,-1.5956,-1.5958,-1.5982,-1.5988,-1.5982,-1.5984,-1.5986,-1.6034,-1.6044,-1.6061,-1.6065,-1.6066,-1.6072,-1.6072,-1.6157,-1.6158,0,0,0,-1.595,-1.5956,-1.5965,-1.5986,-1.5994,-1.5985,-1.5988,-1.6042,-1.6044,-1.6065,-1.6067,-1.6072,-1.6073,-1.6156,-1.6157,-1.6182,0,0,0,-1.5949,-1.5952,-1.5964,-1.5965,-1.5993,-1.6019,-1.5995,-1.6041,-1.6046,-1.6067,-1.6072,-1.6073,-1.6156,-1.6157,-1.618,-1.6194,0,0,0,-1.5945,-1.5952,-1.5959,-1.5965,-1.5985,-1.6018,-1.6023,-1.6042,-1.6048,-1.6071,-1.6074,-1.6156,-1.6157,-1.6179,-1.6191,-1.6216,0,0,0,-1.594,-1.5981,-1.596,-1.6006,-1.5984,-1.6033,-1.6023,-1.6059,-1.6082,-1.6072,-1.6156,-1.6157,-1.6178,-1.6189,-1.6214,-1.6237,-1.6247,0,0,-1.5993,-1.5988,-1.6014,-1.5996,-1.6049,-1.6026,-1.6082,-1.6102,-1.6103,-1.6139,-1.6141,-1.6181,-1.6191,-1.6216,-1.6301,-1.6309,0,0,0,-1.6031,-1.6051,-1.6064,-1.6086,-1.6102,-1.6117,-1.6128,-1.6135,-1.6165,-1.6122,-1.6197,-1.6202,-1.6217,-1.6228,-1.6235,-1.6246,-1.6162,-1.6162,-1.6162,-1.6108,-1.6106,-1.615,-1.6154,-1.6175,-1.6185,-1.6202,-1.6213,-1.6206,-1.6223,-1.6234,-1.6286,-1.6299,-1.6304,-1.6317,-1.6246,-1.6246,-1.6246,-1.6246,-1.6183,-1.621,-1.6198,-1.6237,-1.6235,-1.6267,-1.6277,-1.6271,-1.63,-1.6278,-1.6291,-1.6268,-1.6313,-1.6323,-1.6248,-1.6248,-1.6248,-1.6247,-1.6247,-1.6233,-1.6246,-1.6253,-1.6283,-1.6307,-1.6308,-1.6336,-1.6333,-1.6331,-1.6343,-1.6353,-1.6353,-1.6352,-1.6348,-1.6348,-1.6348,-1.6349,-1.6349,-1.6349,-1.6282,-1.6289,-1.6314,-1.6332,-1.6345,-1.6361,-1.6371,-1.6383,-1.6395,-1.6391,-1.6391,-1.6382,-1.6317,-1.6301,-1.6352,-1.6351,-1.6351,-1.6351,-1.635,-1.636,-1.6341,-1.6378,-1.6391,-1.6412,-1.6434,-1.643,-1.6454,-1.6464,-1.6477,-1.6465,-1.6418,-1.6412,-1.6407,-1.6394,-1.6465,-1.6465,-1.6465,-1.6465,-1.6401,-1.6398,-1.6435,-1.6455,-1.6474,-1.6473,-1.6513,-1.652,-1.6524,-1.653,-1.6519,-1.6501,-1.6495,-1.6493,-1.6486,-1.6474,-1.6564,-1.6564,-1.6564,-1.6449,-1.6447,-1.6483,-1.6486,-1.6502,-1.6515,-1.6553,-1.6576,-1.6576,-1.6568,-1.6534,-1.653,-1.65,-1.6491,-1.6482,-1.6471,-1.6448,0,0]}]]